Tracking 19574 objects as of 16-Feb-2019
HD Live streaming from Space Station
objects crossing your sky now

COSMOS 637

Track COSMOS 637 now!
COSMOS 637 is classified as:


NORAD ID: 7229
Int'l Code: 1974-017A
Perigee: 35,467.8 km
Apogee: 35,840.7 km
Inclination: 7.4 °
Period: 1,429.0 minutes
Semi major axis: 42025 km
RCS: 2.5118 m2 (large)
Launch date: March 26, 1974
Source: Commonwealth of Independent States (former USSR) (CIS)
Launch site: TYURATAM MISSILE AND SPACE COMPLEX (TTMTR)
aabbcc
Your satellite tracking list
Your tracking list is empty




NASA's NSSDC Master Catalog

Two Line Element Set (TLE):
1  7229U 74017A   19045.57189313 -.00000054 +00000-0 +00000-0 0  9995
2  7229 007.3914 300.3674 0044366 348.6006 215.8168 01.00771343095190
Source of the keplerian elements: AFSPC